Location: Unspecified
(22.6800°N, 112.2000°E)
Time: 13:57:02
(UTC+08:00)

S-56A Canister/Altair - Pass Details

Date: 01 August 2021
Orbit: 632 x 2500 km, 38.9° (Epoch: 24 September)

Event Time Altitude Azimuth Distance (km) Brightness Sun altitude
Rises 15:08:33 0° 255° (WSW) 5,153 12.3 54.4°
Reaches altitude 10° 15:11:41 10° 259° (W) 4,375 12.2 53.7°
Maximum altitude 15:24:10 58° 337° (NNW) 2,670 11.3 50.8°
Drops below altitude 10° 15:39:08 10° 54° (NE) 5,137 11.5 47.3°
Sets 15:43:12 0° 58° (ENE) 6,071 11.8 46.4°
